Location: Clanezzo
(45.7500°N, 9.6000°E)
Time: 00:28:34
(UTC+00:00)

Spot 2 Rocket - Pass Details

Date: 12 May 2021
Orbit: 758 x 771 km, 98.5° (Epoch: 23 June)

Event Time Altitude Azimuth Distance (km) Brightness Sun altitude
Exits shadow 19:44:39 13° 125° (SE) 2,115 5.1 -9.8°
Maximum altitude 19:48:35 32° 66° (ENE) 1,278 4.4 -10.3°
Drops below altitude 10° 19:53:02 10° 4° (N) 2,299 6.5 -10.9°
Sets 19:55:32 0° 355° (N) 3,228 7.5 -11.2°
